Weather History for HEGN - May, 2013

Change the Weather History Date:

Friday, May 3, 2013

  Actual Average Record
Temperature  
Mean Temperature 86 °F -  
Max Temperature 98 °F 89 °F 102 °F (2014)
Min Temperature 74 °F 72 °F 64 °F (2005)
Cooling Degree Days 21    
Growing Degree Days 36 (Base 50)    
Moisture  
Dew Point 58 °F    
Average Humidity 45    
Maximum Humidity 83    
Minimum Humidity 18    
Precipitation  
Precipitation 0.00 in - - ()
Sea Level Pressure  
Sea Level Pressure 29.73 in    
Wind  
Wind Speed 7 mph ()    
Max Wind Speed 13 mph    
Max Gust Speed -    
Visibility 4.9 miles    
Events      
Averages and records for this station are not official NWS values.
T = Trace of Precipitation, MM = Missing Value Source: Averaged Metar Reports

Daily Weather History Graph

Daily Weather History Graph

Search for Another Location

Airport or City:

Trip Planner

Search our weather history database for the weather conditions in past years. The results will help you decide how hot, cold, wet, or windy it might be!

Date:

Astronomy

May. 03, 2013 Rise Set
Actual Time 5:04 AM EET 6:19 PM EET
Civil Twilight 4:39 AM EET 6:43 PM EET
Nautical Twilight 4:10 AM EET 7:13 PM EET
Astronomical Twilight 3:40 AM EET 7:43 PM EET
Moon 12:40 AM EET (5/3) 12:25 PM EET (5/3)
Length of Visible Light 14h 03m
Length of Day
13h 14m
Last Quarter, 40% of the Moon is Illuminated
May 3
Last Quarter
May 10
New
May 18
First Quarter
May 25
Full
May 31
Last Quarter

Hourly Weather History & Observations

Time (EET) Temp. Heat Index Dew Point Humidity Pressure Visibility Wind Dir Wind Speed Gust Speed Precip Events Conditions
12:00 AM 78.8 °F - 66.2 °F 65% 29.71 in - NNW 12.7 mph - N/A   Clear
1:00 AM 80.6 °F - 51.8 °F 37% 29.71 in - NNW 12.7 mph - N/A   Clear
2:00 AM 79 °F - 49 °F 24% 29.70 in 6 mi North 8.1 mph - -  
2:00 AM 78.8 °F - 48.2 °F 34% 29.68 in - North 8.1 mph - N/A   Clear
3:00 AM 77.0 °F - 48.2 °F 36% 29.68 in - NNW 9.2 mph - N/A   Clear
4:00 AM 75.2 °F - 46.4 °F 36% 29.71 in - NNW 5.8 mph - N/A   Clear
5:00 AM 75.2 °F - 48.2 °F 38% 29.71 in - North 10.4 mph - N/A   Clear
6:00 AM 75.2 °F - 46.4 °F 36% 29.74 in - NW 5.8 mph - N/A   Clear
7:00 AM 80.6 °F - 46.4 °F 30% 29.77 in - NNW 6.9 mph - N/A   Clear
8:00 AM 84 °F - 47 °F 18% 29.77 in 6 mi North 6.9 mph - -  
8:00 AM 84.2 °F - 48.2 °F 29% 29.77 in - North 6.9 mph - N/A   Clear
9:00 AM 89.6 °F - 50.0 °F 26% 29.77 in - North 6.9 mph - N/A   Clear
10:00 AM 93.2 °F 90.8 °F 53.6 °F 26% 29.77 in 3.7 mi North 6.9 mph - N/A   Unknown
11:00 AM 95.0 °F - 50.0 °F 22% 29.74 in 3.7 mi NNE 6.9 mph - N/A   Unknown
12:00 PM 96.8 °F - 51.8 °F 22% 29.74 in 3.7 mi NE 6.9 mph - N/A   Unknown
1:00 PM 98.6 °F 99.4 °F 60.8 °F 29% 29.71 in 3.7 mi East 6.9 mph - N/A   Unknown
2:00 PM 96 °F - 61 °F 22% 29.72 in 4 mi ESE 8.1 mph - -   Haze
2:00 PM 96.8 °F 97.1 °F 60.8 °F 30% 29.71 in 3.7 mi ESE 8.1 mph - N/A   Partly Cloudy
3:00 PM 91.4 °F 95.4 °F 68.0 °F 46% 29.68 in 3.7 mi ESE 9.2 mph - N/A   Partly Cloudy
4:00 PM 87.8 °F 92.6 °F 69.8 °F 55% 29.68 in 5.0 mi ESE 10.4 mph - N/A   Partly Cloudy
5:00 PM 86.0 °F 89.4 °F 68.0 °F 55% 29.68 in 6.2 mi SE 6.9 mph - N/A   Partly Cloudy
6:00 PM 80.6 °F 83.9 °F 69.8 °F 70% 29.68 in 6.2 mi SE 3.5 mph - N/A   Scattered Clouds
7:00 PM 77.0 °F - 69.8 °F 78% 29.71 in 6.2 mi ESE 3.5 mph - N/A   Scattered Clouds
8:00 PM 78 °F - 71 °F 74% 29.74 in 6 mi SE 9.2 mph - -   Scattered Clouds
8:00 PM 77.0 °F - 71.6 °F 83% 29.74 in 6.2 mi SE 3.5 mph - N/A   Scattered Clouds
9:00 PM 77.0 °F - 69.8 °F 78% 29.74 in - ESE 5.8 mph - N/A   Clear
10:00 PM 77.0 °F - 71.6 °F 83% 29.77 in - ESE 4.6 mph - N/A   Clear
11:00 PM 77.0 °F - 66.2 °F 69% 29.77 in - WSW 2.3 mph - N/A   Clear